TimeEDT,TemperatureF,Dew PointF,Humidity,Sea Level PressureIn,VisibilityMPH,Wind Direction,Wind SpeedMPH,Gust SpeedMPH,PrecipitationIn,Events,Conditions,WindDirDegrees,DateUTC
12:56 AM,64.9,63.0,93,30.06,5.0,Calm,Calm,-,0.01,,Clear,0,2013-10-05 04:56:00
1:56 AM,64.0,62.1,93,30.07,5.0,Calm,Calm,-,N/A,,Clear,0,2013-10-05 05:56:00
2:56 AM,62.1,61.0,96,30.07,4.0,Calm,Calm,-,N/A,,Clear,0,2013-10-05 06:56:00
3:08 AM,60.8,60.8,100,30.08,1.8,Calm,Calm,-,N/A,,Clear,0,2013-10-05 07:08:00
3:11 AM,62.6,60.8,94,30.08,0.8,Calm,Calm,-,N/A,,Clear,0,2013-10-05 07:11:00
3:30 AM,60.8,60.8,100,30.08,1.2,Calm,Calm,-,N/A,,Clear,0,2013-10-05 07:30:00
3:36 AM,62.6,62.6,100,30.08,3.0,SSW,3.5,-,N/A,,Clear,200,2013-10-05 07:36:00
3:56 AM,61.0,60.1,97,30.06,3.0,Calm,Calm,-,N/A,,Clear,0,2013-10-05 07:56:00
4:07 AM,62.6,60.8,94,30.07,2.5,SSE,3.5,-,N/A,,Clear,150,2013-10-05 08:07:00
4:46 AM,62.6,60.8,94,30.07,1.0,Calm,Calm,-,0.01,,Partly Cloudy,0,2013-10-05 08:46:00
4:53 AM,60.8,60.8,100,30.07,0.5,Calm,Calm,-,0.01,Fog,Fog,0,2013-10-05 08:53:00
4:56 AM,62.1,60.1,93,30.06,0.8,Calm,Calm,-,0.01,,Clear,0,2013-10-05 08:56:00
4:59 AM,60.8,60.8,100,30.07,1.5,Calm,Calm,-,N/A,,Clear,0,2013-10-05 08:59:00
5:05 AM,62.6,60.8,94,30.08,3.0,Calm,Calm,-,N/A,,Clear,0,2013-10-05 09:05:00
5:56 AM,62.1,61.0,96,30.07,3.0,SSW,3.5,-,N/A,,Clear,210,2013-10-05 09:56:00
6:53 AM,62.6,60.8,94,30.08,2.5,South,4.6,-,N/A,,Partly Cloudy,170,2013-10-05 10:53:00
6:56 AM,62.1,61.0,96,30.07,2.5,Calm,Calm,-,N/A,,Partly Cloudy,0,2013-10-05 10:56:00
7:28 AM,62.6,60.8,94,30.08,1.2,Calm,Calm,-,N/A,,Clear,0,2013-10-05 11:28:00
7:38 AM,62.6,62.6,100,30.09,1.0,Calm,Calm,-,N/A,,Clear,0,2013-10-05 11:38:00
7:47 AM,62.6,62.6,100,30.09,0.8,Calm,Calm,-,N/A,,Clear,0,2013-10-05 11:47:00
7:56 AM,62.1,61.0,96,30.08,0.5,Calm,Calm,-,N/A,Fog,Fog,0,2013-10-05 11:56:00
8:16 AM,62.6,62.6,100,30.09,1.0,Calm,Calm,-,N/A,,Clear,0,2013-10-05 12:16:00
8:24 AM,62.6,62.6,100,30.09,0.5,Calm,Calm,-,N/A,Fog,Fog,0,2013-10-05 12:24:00
8:41 AM,64.4,64.4,100,30.08,1.2,Calm,Calm,-,N/A,,Scattered Clouds,0,2013-10-05 12:41:00
8:52 AM,66.2,64.4,94,30.09,2.5,Calm,Calm,-,N/A,,Mostly Cloudy,0,2013-10-05 12:52:00
8:56 AM,68.0,64.9,90,30.07,3.0,Calm,Calm,-,N/A,,Mostly Cloudy,0,2013-10-05 12:56:00
9:56 AM,69.1,64.9,87,30.06,7.0,South,3.5,-,N/A,,Scattered Clouds,180,2013-10-05 13:56:00
10:56 AM,73.0,66.0,79,30.06,8.0,Variable,5.8,-,0.01,,Partly Cloudy,0,2013-10-05 14:56:00
11:56 AM,69.1,64.9,87,30.07,7.0,WSW,4.6,-,N/A,,Mostly Cloudy,240,2013-10-05 15:56:00
12:06 PM,69.8,64.4,83,30.08,5.0,WSW,3.5,-,0.00,Rain-Thunderstorm,Light Rain,250,2013-10-05 16:06:00
12:15 PM,69.8,66.2,88,30.09,2.0,WSW,4.6,-,0.00,Rain,Rain,250,2013-10-05 16:15:00
12:24 PM,68.0,66.2,94,30.09,1.2,SW,5.8,-,N/A,Rain,Heavy Rain,230,2013-10-05 16:24:00
12:33 PM,68.0,66.2,94,30.07,1.0,SE,5.8,-,N/A,Rain,Heavy Rain,130,2013-10-05 16:33:00
12:41 PM,69.8,66.2,88,30.07,2.0,SSE,4.6,-,N/A,Rain,Light Rain,160,2013-10-05 16:41:00
12:52 PM,69.8,66.2,88,30.08,4.0,South,8.1,-,N/A,,Overcast,180,2013-10-05 16:52:00
12:56 PM,69.1,66.9,93,30.06,5.0,South,3.5,-,N/A,,Overcast,190,2013-10-05 16:56:00
1:56 PM,72.0,68.0,87,30.03,10.0,South,5.8,-,N/A,,Scattered Clouds,180,2013-10-05 17:56:00
2:41 PM,69.8,68.0,94,30.04,2.0,Calm,Calm,-,N/A,Rain,Rain,0,2013-10-05 18:41:00
2:51 PM,69.8,68.0,94,30.04,8.0,SSW,3.5,-,N/A,Rain,Light Rain,210,2013-10-05 18:51:00
2:56 PM,70.0,68.0,93,30.03,9.0,South,4.6,-,N/A,,Overcast,180,2013-10-05 18:56:00
3:56 PM,72.0,69.1,91,30.00,9.0,SSE,5.8,-,N/A,,Mostly Cloudy,150,2013-10-05 19:56:00
4:42 PM,73.4,69.8,88,30.02,8.0,South,6.9,-,N/A,,Scattered Clouds,180,2013-10-05 20:42:00
4:56 PM,73.0,69.1,87,30.00,6.0,SSE,4.6,-,N/A,,Mostly Cloudy,160,2013-10-05 20:56:00
5:56 PM,72.0,69.1,91,29.98,6.0,South,4.6,-,N/A,,Clear,170,2013-10-05 21:56:00
6:56 PM,70.0,66.9,90,29.97,8.0,South,4.6,-,N/A,,Scattered Clouds,180,2013-10-05 22:56:00
7:56 PM,68.0,64.9,90,30.00,9.0,SW,6.9,-,N/A,Rain,Light Rain,220,2013-10-05 23:56:00
8:56 PM,66.9,64.9,93,29.99,10.0,South,4.6,-,N/A,,Mostly Cloudy,190,2013-10-06 00:56:00
9:56 PM,66.9,64.9,93,30.00,10.0,SSE,4.6,-,N/A,,Overcast,150,2013-10-06 01:56:00
10:56 PM,66.9,64.9,93,29.98,9.0,Calm,Calm,-,N/A,,Scattered Clouds,0,2013-10-06 02:56:00
11:56 PM,66.9,64.9,93,29.96,7.0,Calm,Calm,-,N/A,,Clear,0,2013-10-06 03:56:00